This is the latest recevied weather packets stored in our database for station/object OE3PDB-3. If no packets are shown the sender has not sent any weather packets the latest 10 day(s).
| Time | Temp. | Humidity | Pressure | Rain* | Wind** | Luminosity | Snow |
|---|---|---|---|---|---|---|---|
| 1787463033 | 15° C | 79% | 1022.2 hPa | 0 mm | - | - | - |
| 1787462433 | 13.33° C | 82% | 1022.2 hPa | 0 mm | - | - | - |
| 1787461833 | 12.78° C | 82% | 1021.9 hPa | 0 mm | - | - | - |
| 1787461233 | 12.22° C | 82% | 1021.8 hPa | 0 mm | - | - | - |
| 1787460633 | 12.22° C | 82% | 1021.8 hPa | 0 mm | - | - | - |
| 1787460033 | 12.22° C | 81% | 1021.9 hPa | 0 mm | - | - | - |
| 1787459433 | 12.22° C | 81% | 1021.8 hPa | 0 mm | - | - | - |
| 1787458833 | 12.22° C | 81% | 1021.7 hPa | 0 mm | - | - | - |
| 1787458233 | 12.22° C | 81% | 1021.5 hPa | 0 mm | - | - | - |
| 1787457633 | 12.22° C | 81% | 1021.6 hPa | 0 mm | - | - | - |
| 1787457033 | 12.22° C | 80% | 1021.5 hPa | 0 mm | - | - | - |
| 1787456433 | 12.22° C | 80% | 1021.4 hPa | 0 mm | - | - | - |
| 1787455833 | 12.22° C | 79% | 1021.4 hPa | 0 mm | - | - | - |
| 1787455233 | 12.22° C | 79% | 1021.4 hPa | 0 mm | - | - | - |
| 1787454633 | 11.67° C | 79% | 1021.3 hPa | 0 mm | - | - | - |
| 1787454033 | 12.22° C | 79% | 1021.2 hPa | 0 mm | - | - | - |
| 1787453433 | 12.22° C | 79% | 1021.3 hPa | 0 mm | - | - | - |
| 1787452833 | 12.22° C | 78% | 1021.2 hPa | 0 mm | - | - | - |
| 1787452233 | 12.22° C | 78% | 1021.2 hPa | 0 mm | - | - | - |
| 1787451633 | 12.22° C | 78% | 1021.3 hPa | 0 mm | - | - | - |
| 1787451033 | 12.22° C | 77% | 1021.3 hPa | 0 mm | - | - | - |
| 1787450433 | 12.22° C | 77% | 1021.4 hPa | 0 mm | - | - | - |
| 1787449833 | 12.22° C | 77% | 1021.3 hPa | 0 mm | - | - | - |
| 1787449233 | 12.22° C | 76% | 1021.3 hPa | 0 mm | - | - | - |
| 1787448633 | 12.78° C | 76% | 1021.3 hPa | 0 mm | - | - | - |
* Rain latest hour (hover to see other rain measurements)
** Current wind speed in m/s (hover to see current wind gust speed)